Dirt Inspires - Women's Trail Half Marathon 2011

Age Group Results

August 28, 2011


Results By Finish LIne Productions, LLC Finish Line Productions, LLC

All Participants

Female 14 to 19

Place Name City Bib No Age Overall Chip Time Gun Time
1 Julia Elaine Reichelstein Stanford CA 189 19 59 2:24:56.7 2:25:03.5
2 Coral Anne Olaveson Mission Viejo CA 170 17 120 2:48:00.9 2:48:06.0
3 Isadora De Castro Redwood City CA 240 16 134 2:55:50.4 2:56:08.8
4 Megan Mancha Visalia CA 143 16 144 3:01:16.9 3:01:40.6
5 Taylor Irving Visalia CA 106 14 165 3:22:11.7 3:22:35.7
 

Female 20 to 29

Place Name City Bib No Age Overall Chip Time Gun Time
1 Monica Jo Nicholson Prunedale CA 165 29 2 1:40:03.5 1:40:05.3
2 Gretchen Dunbar Placerville CA 239 22 14 2:01:26.2 2:01:32.2
3 Lisa Mae Chin San Jose CA 45 28 17 2:05:36.9 2:05:41.8
4 Jana Morlan Idyllwild CA 158 29 23 2:09:33.6 2:09:49.3
5 Monique Jacques Fresno CA 107 25 28 2:12:38.3 2:13:09.8
6 Christina G Freschl Berkeley CA 82 28 29 2:12:57.4 2:13:02.7
7 Belinda Chin Sunnyvale CA 44 28 32 2:13:16.1 2:13:33.6
8 Alice Bridget Kelly Berkeley CA 116 28 37 2:15:30.2 2:15:36.0
9 Daniela Reichelstein Lewiston ME 188 21 39 2:16:20.4 2:16:27.0
10 Stephanie A Brown Aptos CA 28 29 41 2:17:36.9 2:17:43.1
11 Selena Castro Salinas CA 42 25 42 2:17:59.4 2:18:11.3
12 Kathryn Ann Nejasmich San Francisco CA 163 29 44 2:18:11.5 2:18:24.0
13 Vicki N. Quisum Petersen Los Gatos CA 182 21 46 2:20:32.3 2:20:42.5
14 Vicki Sheu San Jose CA 201 28 57 2:24:05.2 2:24:17.3
15 Frances Margare Olaveson San Francisco CA 171 25 58 2:24:55.7 2:25:02.1
16 Alexandra Villegas Santa Cruz CA 221 21 61 2:25:52.2 2:26:04.3
17 Kristy Oriol Lodi CA 172 26 62 2:26:13.8 2:26:27.1
18 Heather Clifton Davis CA 46 29 72 2:28:27.1 2:28:36.9
19 Alexandra Marie Farhat Palo Alto CA 71 20 73 2:28:39.3 2:28:54.3
20 Janelle Brewer Cameron Park CA 25 28 85 2:34:02.2 2:34:16.7
21 Crystal Wade Sacramento CA 222 28 86 2:34:03.0 2:34:16.8
22 Kristi Johnson La Selva Beach CA 110 26 105 2:40:33.8 2:41:10.2
23 Connie Guerrero Santa Cruz CA 92 29 111 2:44:10.9 2:44:16.2
24 Lindsay Tateishi Fair Oaks CA 208 29 132 2:53:54.7 2:54:17.9
25 Maria E Ryan San Jose CA 196 28 141 2:59:57.0 3:00:03.9
26 Kimberly Copperberg Santa Rosa CA 50 28 149 3:05:25.9 3:05:39.3
27 Lauren Thomas San Francisco CA 212 27 162 3:22:10.1 3:22:41.5
28 Alexis Paza San Jose CA 179 27 163 3:22:10.7 3:22:41.2
29 Ariel Renee Fortune San Francisco CA 80 26 164 3:22:10.9 3:22:41.3
30 Shantele A Decasper Sacramento CA 59 25 178 3:36:29.5 3:36:49.9
31 Monica Paladini Modesto CA 175 24 180 3:38:59.6 3:39:19.1
32 Cathryn Johnson San Jose CA 108 27 188 4:19:15.6 4:19:50.9
 

Female 30 to 39

Place Name City Bib No Age Overall Chip Time Gun Time
1 Caitlin Smith Oakland CA 202 30 1 1:33:43.4 1:33:44.8
2 Aracelly Stefan Clouse Santa Cruz CA 47 38 3 1:45:44.7 1:45:46.8
3 Shoshanah M. Orzech Santa Cruz CA 174 39 5 1:52:26.4 1:52:28.3
4 Berklee Akutagawa Manteca CA 4 33 6 1:53:49.5 1:53:52.4
5 Shelly R Moss San Jose CA 160 39 7 1:55:40.9 1:55:44.5
6 Melissa Minjarez Stockton CA 241 34 9 1:56:13.7 1:56:22.5
7 Lindsay Mar Santa Clara CA 145 34 10 1:57:29.3 1:57:34.2
8 Angela Beatrice Hernandez Watsonville CA 99 38 12 2:00:32.9 2:00:35.4
9 Julie Vada Stockwell Santa Cruz CA 205 34 15 2:01:59.0 2:02:01.4
10 Erica Wyrick Riverbank CA 228 36 16 2:05:14.3 2:05:18.6
11 Kristin Kolster Auburn CA 121 39 19 2:07:49.8 2:07:57.0
12 Carolyn Daly Link San Francisco CA 133 30 20 2:08:00.1 2:08:04.7
13 Eisha Carroll Aptos CA 40 39 21 2:08:04.2 2:08:09.7
14 Christine Gebert-Parikh Queens Village NY 83 33 22 2:08:21.4 2:08:25.2
15 Elizabeth C Long Davis CA 135 37 24 2:10:00.7 2:10:05.6
16 Christine Draper Palo Alto CA 65 30 35 2:14:17.0 2:14:51.0
17 Brandy Cooper Cast Santa Cruz CA 41 32 36 2:15:16.9 2:15:24.9
18 Catherine Lavelle San Jose CA 237 30 43 2:18:10.7 2:18:23.4
19 Sarah D'Amico Monterey CA 53 30 45 2:20:20.5 2:20:41.1
20 Tracie Reynolds Aptos CA 190 39 47 2:20:33.9 2:20:38.7
21 Carey Lyn Kopay Hayward CA 123 37 50 2:22:11.2 2:22:43.8
22 Cara Pearson Santa Cruz CA 180 34 51 2:22:18.3 2:22:25.9
23 Shannon Thibert San Jose CA 211 39 54 2:23:21.3 2:23:39.1
24 Anne Childers Santa Cruz CA 236 36 64 2:26:16.6 2:26:26.0
25 Shelly Grabe Santa Cruz CA 87 36 67 2:26:55.1 2:27:05.0
26 Alexandra Burgar Livermore CA 33 39 75 2:31:00.8 2:31:33.5
27 Michelle Moore San Jose CA 157 30 77 2:31:04.5 2:31:22.7
28 Shila Patel San Jose CA 177 30 78 2:31:31.0 2:31:48.1
29 Margaret Mathias Santa Cruz CA 148 35 80 2:32:14.0 2:32:22.0
30 Sara Kurth Oakland CA 125 35 87 2:34:43.1 2:35:08.2
31 Daniela Porri Los Gatos CA 184 36 89 2:35:52.0 2:36:09.2
32 Deanne Ortiz-Mclendon Santa Cruz CA 173 37 94 2:36:27.3 2:36:54.3
33 Shannon Gleeson Santa Cruz CA 85 30 95 2:37:39.3 2:37:49.7
34 Tanya Birch Fair Oaks CA 20 34 97 2:37:55.6 2:38:18.2
35 Christi Shaw Davenport CA 200 36 101 2:39:17.9 2:39:42.6
36 Jessica Patron Bend OR 178 35 102 2:39:49.4 2:40:33.1
37 Aimee Fitzgerald Santa Cruz CA 78 32 109 2:42:57.8 2:43:07.0
38 Christen Dare Greenfield Monterey CA 88 30 110 2:43:22.9 2:43:48.5
39 Wendi Aengus Orinda CA 2 39 114 2:46:12.6 2:46:27.3
40 Arianna E. Mayes Aptos CA 150 36 115 2:46:19.9 2:46:33.2
41 Maria Gloria Marenco Aptos CA 146 38 117 2:46:29.9 2:47:02.8
42 Kelly Bartlett Santa Clara CA 12 31 121 2:48:01.6 2:48:07.1
43 Iris Kavanagh Santa Cruz CA 112 39 124 2:49:37.5 2:50:14.8
44 Lhia Casazza Cameron Park CA 39 39 125 2:49:43.8 2:50:07.5
45 Vinh Dang Santa Cruz CA 54 39 127 2:50:49.4 2:51:02.7
46 Denise Rankin Livermore CA 185 30 131 2:53:13.4 2:53:48.3
47 Sally Ghilarducci Santa Cruz CA 84 38 137 2:58:01.5 2:58:26.4
48 Erin Temple Portland OR 209 37 142 3:00:14.1 3:00:56.9
49 Lisa Ford Agoura CA 79 34 150 3:10:29.9 3:11:00.5
50 Julie M Maiers Golden CO 142 31 151 3:10:30.0 3:10:59.6
51 Jennifer Dwight-Frost Greenwood CA 67 39 168 3:26:15.5 3:26:44.6
52 Sarai Deeanna Jones Sacramento CA 238 33 175 3:34:37.2 3:34:53.6
53 Michelle Elizab Molloy San Jose CA 155 35 176 3:35:11.8 3:35:50.9
54 Geraldine Boek Modesto CA 22 39 181 3:38:59.7 3:39:19.5
55 Mina Canning Seaside CA 36 36 184 3:45:03.0 3:45:39.9
 

Female 40 to 49

Place Name City Bib No Age Overall Chip Time Gun Time
1 Kari Rust Woodside CA 195 41 4 1:47:53.6 1:47:55.4
2 Michelle Kern Soquel CA 235 47 8 1:56:05.7 1:56:08.5
3 Lisa Fink Valencia CA 76 41 11 1:58:53.7 1:58:57.7
4 Alicia Ann Barron Sunnyvale CA 11 48 26 2:11:55.4 2:11:58.6
5 Shari Lynn Keener Santa Cruz CA 114 42 27 2:12:02.6 2:12:08.9
6 Tammy Abraham Aptos CA 1 40 30 2:13:03.3 2:13:07.6
7 Corinna Krueger Hayward CA 124 40 31 2:13:15.8 2:13:38.2
8 Jamie M.p. Bunka Sunnyvale CA 31 48 34 2:13:58.6 2:14:02.2
9 Jennifer Brickner Valencia CA 26 49 38 2:15:30.3 2:15:41.9
10 Victoria Kennedy Sand City CA 118 44 40 2:17:01.3 2:17:05.4
11 Kymberly Fazzio Nipomo CA 72 45 48 2:20:49.4 2:21:06.2
12 Paola Howard Valencia CA 103 48 49 2:21:53.5 2:22:04.1
13 Laura Lee Dawson San Jose CA 55 41 52 2:22:21.0 2:22:28.1
14 Beth Keyser Pleasant Hill CA 119 44 53 2:22:46.1 2:23:01.5
15 Irene Halderman Soquel CA 94 48 55 2:23:38.8 2:23:49.7
16 Betsy Mack San Jose CA 141 46 56 2:23:52.7 2:24:12.0
17 Linda S Lewis Paradise CA 130 48 63 2:26:14.2 2:26:39.8
18 Jill Ahearn Prunedale CA 3 48 65 2:26:21.8 2:26:58.0
19 Lauri K Cerny Modesto CA 43 47 66 2:26:38.5 2:26:40.9
20 Julie Nordquist Pleasanton CA 167 48 69 2:27:30.8 2:27:35.9
21 Mireille Horton Soqule CA 102 42 70 2:27:42.5 2:28:17.7
22 Cathleen Grooman Cameron Park CA 91 46 71 2:28:05.1 2:28:18.2
23 Michelle Van Ooy Aptos CA 219 47 81 2:32:43.5 2:33:19.3
24 Holly Zuklie Portola Valley CA 231 42 82 2:32:44.0 2:33:03.1
25 Julee Lynn Henderson Pleasant Hill CA 97 45 84 2:33:30.1 2:33:46.1
26 Laura Bello San Francisco CA 16 48 88 2:35:12.6 2:35:34.6
27 Phyllis A Miller Los Gatos CA 154 47 90 2:35:54.4 2:36:03.8
28 Erin Jeannette O'Neil Fremont CA 168 48 92 2:36:00.5 2:36:10.7
29 Mae Rucker San Jose CA 194 45 93 2:36:03.5 2:36:38.0
30 Chie Kawahara Santa Cruz CA 113 47 99 2:38:23.7 2:38:54.0
31 Erika Brand Aptos CA 24 40 100 2:38:29.1 2:39:00.1
32 Ann Nash Los Gatos CA 162 47 103 2:40:04.9 2:40:23.8
33 Suzanne Becker Santa Cruz CA 14 47 106 2:40:43.8 2:41:03.9
34 Barbara Kempeny San Jose CA 117 46 108 2:42:25.6 2:42:33.5
35 Kate Wilcox Carmel CA 226 48 112 2:44:47.8 2:45:17.6
36 Elizabeth Bishop Monterey, Ca CA 21 48 116 2:46:21.1 2:46:31.7
37 Leah Drake Corralitos CA 64 43 123 2:48:47.7 2:49:19.6
38 Alena Robertson Bakersfield CA 191 49 126 2:50:46.9 2:51:01.0
39 Pamela Busch Watsonville CA 34 41 128 2:51:10.9 2:51:22.4
40 Anne Weidlich Santa Cruz CA 224 41 129 2:51:52.5 2:52:20.5
41 Debbie Delisle Livermore CA 61 42 130 2:53:13.1 2:53:48.7
42 Jennifer De Castro Redwood City CA 57 47 133 2:55:50.2 2:56:08.9
43 Edee Gremore Las Vegas NV 89 40 135 2:57:49.1 2:58:21.6
44 Judy Bzoskie Las Vegas NV 35 41 136 2:57:49.3 2:58:21.6
45 Audrey Fernandez-Elliott San Jose CA 74 44 138 2:59:43.5 2:59:52.0
46 Rose Elliott San Jose CA 70 47 140 2:59:55.5 3:00:03.4
47 Susan Elizabeth Hutton San Jose CA 105 46 143 3:00:36.1 3:00:57.0
48 Jennifer Hade San Jose CA 93 48 145 3:01:23.1 3:01:49.4
49 Celinda Moore San Mateo CA 156 42 146 3:01:25.1 3:01:46.5
50 Valerie Vasquez Sunnyvale CA 220 44 148 3:04:33.4 3:04:59.0
51 Tawnya Lynn Dozier San Jose CA 63 41 152 3:11:51.3 3:12:14.9
52 Pauline Ludwig Concord CA 140 44 153 3:12:35.9 3:13:03.7
53 Susan Larene Nance-Luhrs Los Altos CA 161 45 154 3:12:55.8 3:13:31.6
54 Jonna Delgado Los Gatos CA 60 46 160 3:17:23.8 3:17:38.9
55 Julia Van Der Wyck Santa Cruz CA 217 40 166 3:23:27.6 3:23:56.7
56 Tiya Marie Kelley Roseville CA 115 40 167 3:26:14.3 3:26:44.3
57 Jennifer Matt San Francisco CA 149 43 169 3:26:36.4 3:27:02.9
58 Sherrie Badertscher Fresno CA 8 43 170 3:29:17.5 3:31:10.3
59 Susan Sullivan San Francisco CA 206 47 179 3:37:49.8 3:38:16.1
60 Gina Elisalde La Selva Beach CA 68 45 182 3:41:01.3 3:42:52.8
61 Sabrina Hill Sacramento CA 101 41 186 3:59:21.2 4:00:01.5
 

Female 50 to 59

Place Name City Bib No Age Overall Chip Time Gun Time
1 Eileen Brown Santa Cruz CA 27 53 13 2:01:13.1 2:01:14.5
2 Nancy Cohen Soquel CA 48 57 18 2:06:38.2 2:06:45.0
3 Leticia Hernandez Santa Cruz CA 100 53 25 2:11:09.6 2:11:12.5
4 Mindy Lieberman Sunnyvale CA 131 52 33 2:13:17.9 2:13:20.7
5 Lisa Connally Monterey CA 49 52 60 2:25:20.9 2:25:50.1
6 Paula Ferre' Concord CA 75 57 68 2:27:16.5 2:27:42.5
7 Erin Beck Pleasant Hill CA 13 50 74 2:29:34.5 2:30:01.6
8 Lee Anne Anne Wentz Santa Rosa CA 225 54 76 2:31:02.0 2:31:06.8
9 Melanie Cotterell Saugus CA 51 51 79 2:31:45.2 2:31:56.8
10 Karen Dean San Jose CA 58 55 91 2:35:54.5 2:36:04.3
11 Janet Melac Pacific Grove CA 152 50 96 2:37:49.3 2:38:00.2
12 Sonnie Pickering Los Gatos CA 183 51 104 2:40:05.0 2:40:23.6
13 Ellie K Johnson Carmel Valley CA 109 50 107 2:41:50.9 2:42:06.5
14 Sally Ann Dawson Lancaster CA 56 52 113 2:45:49.7 2:46:11.3
15 Regina A Fish Felton CA 77 53 118 2:46:55.0 2:47:29.3
16 Wendy Tomer Monte Sereno CA 213 54 122 2:48:36.1 2:49:02.0
17 Janet Dumonchelle Sacramento CA 66 54 147 3:02:55.4 3:03:31.2
18 Georgiana Boewer Scotts Valley CA 23 58 155 3:14:05.8 3:14:31.8
19 Sarah Tyson Gold River CA 215 52 156 3:14:20.4 3:14:41.1
20 Michelle Cantor Santa Cruz CA 37 53 159 3:16:01.4 3:16:30.0
21 Phyllis Bahue San Jose CA 9 53 161 3:20:55.8 3:21:33.4
22 Dorothy Zagrodnik Milwaukee WI 230 54 172 3:30:54.1 3:31:15.5
23 Debra E Hendricks Fort Bragg CA 98 52 177 3:36:10.7 3:36:45.6
24 Toni Bufalry South Lake Tahoe CA 30 53 183 3:42:41.1 3:42:57.5
25 Rosalie Eileen Toren Mt View CA 214 54 185 3:47:46.5 3:48:25.1
26 Glenda Reckner Citrus Heights CA 187 55 187 4:08:07.5 4:08:46.3
 

Female 60 to 69

Place Name City Bib No Age Overall Chip Time Gun Time
1 Lorraine Lavelle Capitola CA 127 61 83 2:33:21.1 2:33:33.2
2 Barbara Lee Monterey CA 128 60 98 2:38:18.4 2:38:33.7
3 Heidi M McGough Santa Cruz CA 151 61 119 2:47:35.7 2:47:48.4
4 Kathy Downey Sacramento CA 62 60 139 2:59:55.4 3:00:18.6
5 Darcel Pertusati Valencia CA 181 60 157 3:14:48.4 3:15:12.6
6 Betsy Swallow Saugus CA 207 61 158 3:14:49.0 3:15:12.6
7 Ginny L Brummels El Dorado Hills CA 29 64 173 3:30:59.6 3:31:21.0
8 Maggi Glenn-Colburn Fair Oaks CA 86 65 174 3:31:44.4 3:32:06.2
 

Female 70 to 79

Place Name City Bib No Age Overall Chip Time Gun Time
1 Katherine Beiers Santa Cruz CA 15 79 171 3:29:33.9 3:29:43.2